Tracking 23726 objects as of 24-Sep-2021
HD Live streaming from Space Station
objects crossing your sky now

DMSP 5D-2 F13 DEB

Track DMSP 5D-2 F13 DEB now!
10-day predictions


NORAD ID: 42304
Int'l Code: 1995-015HW
Perigee: 775.7 km
Apogee: 803.9 km
Inclination: 98.7 °
Period: 100.5 minutes
Semi major axis: 7160 km
RCS: Unknown
Launch date: March 24, 1995
Source: United States (US)
Launch site: AIR FORCE WESTERN TEST RANGE (AFWTR)

Note: This is SATELLITE DEBRIS
aabbcc
Your satellite tracking list
Your tracking list is empty




NASA's NSSDC Master Catalog

Two Line Element Set (TLE):
1 42304U 95015HW  21266.04708715  .00002686  00000-0  10014-2 0  9992
2 42304  98.7142 300.7466 0019681 195.3704 164.6883 14.32709567322799
Source of the keplerian elements: AFSPC